Tracking 29892 objects as of 21-Nov-2024
HD Live streaming from Space Station
objects crossing your sky now

STARLINK-5760

Track STARLINK-5760 now!
10-day predictions
STARLINK-5760 is classified as:


NORAD ID: 55591
Int'l Code: 2023-020Y
Perigee: 565.5 km
Apogee: 567.0 km
Inclination: 43.0 °
Period: 95.8 minutes
Semi major axis: 6937 km
RCS: Unknown
Launch date: February 12, 2023
Source: United States (US)
Launch site: AIR FORCE EASTERN TEST RANGE (AFETR)
Your satellite tracking list
Your tracking list is empty




NASA's NSSDC Master Catalog

Two Line Element Set (TLE):
1 55591U 23020Y   24325.32078804 -.00000218  00000-0 -10483-5 0  9994
2 55591  43.0040  62.0769 0001073 274.7925  85.2795 15.02537937 97560
Source of the keplerian elements: AFSPC